Weather History for Prairie Du Chien, WI

Change the Weather History Date:

Saturday, August 3, 2013

  Actual Average Record
Temperature  
Mean Temperature 66 °F -  
Max Temperature 78 °F 84 °F 101 °F (1988)
Min Temperature 53 °F 59 °F 48 °F (1971)
Growing Degree Days 16 (Base 50)    
Moisture  
Dew Point 52 °F    
Average Humidity 63    
Maximum Humidity 95    
Minimum Humidity 32    
Precipitation  
Precipitation 0.00 in - - ()
Sea Level Pressure  
Sea Level Pressure 30.10 in    
Wind  
Wind Speed 2 mph (NW)    
Max Wind Speed 12 mph    
Max Gust Speed 17 mph    
Visibility 10 miles    
Events      
Averages and records for this station are not official NWS values.
T = Trace of Precipitation, MM = Missing Value Source: NWS Daily Summary

Daily Weather History Graph

Daily Weather History Graph

Search for Another Location

Airport:

Trip Planner

Search our weather history database for the weather conditions in past years. The results will help you decide how hot, cold, wet, or windy it might be!

Date:

Astronomy

Aug. 03, 2013 Rise Set
Actual Time 5:57 AM CDT 8:22 PM CDT
Civil Twilight 5:25 AM CDT 8:54 PM CDT
Nautical Twilight 4:45 AM CDT 9:34 PM CDT
Astronomical Twilight 4:01 AM CDT 10:18 PM CDT
Moon 3:06 AM CDT (8/3) 6:06 PM CDT (8/3)
Length of Visible Light 15h 29m
Length of Day
14h 25m
Waning Crescent, 9% of the Moon is Illuminated
Aug 3
Waning Crescent
Aug 6
New
Aug 14
First Quarter
Aug 20
Full
Aug 28
Last Quarter

Hourly Weather History & Observations

Time (CDT) Temp. Dew Point Humidity Pressure Visibility Wind Dir Wind Speed Gust Speed Precip Events Conditions
12:15 AM 63.7 °F 57.6 °F 80% 30.01 in 10.0 mi Calm Calm - N/A   Clear
12:35 AM 62.6 °F 57.7 °F 84% 30.01 in 10.0 mi Calm Calm - N/A   Clear
12:55 AM 61.3 °F 57.9 °F 89% 30.02 in 10.0 mi Calm Calm - N/A   Clear
1:15 AM 60.4 °F 56.8 °F 88% 30.02 in 10.0 mi Calm Calm - N/A   Clear
1:35 AM 59.9 °F 56.3 °F 88% 30.02 in 10.0 mi Calm Calm - N/A   Clear
1:55 AM 59.2 °F 56.3 °F 90% 30.02 in 10.0 mi Calm Calm - N/A   Clear
2:15 AM 58.8 °F 55.9 °F 90% 30.02 in 10.0 mi Calm Calm - N/A   Clear
2:35 AM 59.5 °F 56.1 °F 88% 30.03 in 10.0 mi Calm Calm - N/A   Clear
2:55 AM 56.8 °F 54.3 °F 91% 30.03 in 10.0 mi Calm Calm - N/A   Clear
3:15 AM 57.0 °F 54.5 °F 91% 30.04 in 10.0 mi Calm Calm - N/A   Clear
3:35 AM 56.5 °F 53.8 °F 91% 30.04 in 10.0 mi Calm Calm - N/A   Clear
3:55 AM 56.3 °F 53.8 °F 91% 30.04 in 10.0 mi Calm Calm - N/A   Clear
4:15 AM 55.4 °F 54.0 °F 95% 30.05 in 10.0 mi Calm Calm - N/A   Clear
4:35 AM 55.2 °F 53.1 °F 92% 30.05 in 10.0 mi Calm Calm - N/A   Clear
4:55 AM 55.0 °F 53.1 °F 93% 30.05 in 10.0 mi Calm Calm - N/A   Clear
5:15 AM 54.3 °F 52.3 °F 93% 30.05 in 10.0 mi East 3.5 mph - N/A   Clear
5:35 AM 54.9 °F 52.7 °F 92% 30.05 in 10.0 mi Calm Calm - N/A   Clear
5:55 AM 53.8 °F 52.0 °F 94% 30.06 in 10.0 mi Calm Calm - N/A   Clear
6:15 AM 53.4 °F 51.8 °F 94% 30.07 in 10.0 mi Calm Calm - N/A   Clear
6:35 AM 53.8 °F 51.8 °F 93% 30.07 in 10.0 mi Calm Calm - N/A   Clear
6:55 AM 54.7 °F 52.7 °F 93% 30.08 in 10.0 mi Calm Calm - N/A   Clear
7:15 AM 56.7 °F 54.5 °F 92% 30.08 in 10.0 mi Calm Calm - N/A   Clear
7:35 AM 59.2 °F 55.6 °F 88% 30.09 in 10.0 mi Calm Calm - N/A   Clear
7:55 AM 60.8 °F 56.5 °F 86% 30.10 in 10.0 mi NNW 3.5 mph - N/A   Clear
8:15 AM 62.2 °F 57.0 °F 83% 30.09 in 10.0 mi NNW 6.9 mph - N/A   Clear
8:35 AM 63.7 °F 56.3 °F 77% 30.10 in 10.0 mi NW 5.8 mph - N/A   Clear
8:55 AM 65.5 °F 55.8 °F 71% 30.09 in 10.0 mi Calm Calm - N/A   Clear
9:15 AM 66.9 °F 56.7 °F 70% 30.09 in 10.0 mi Calm Calm - N/A   Clear
9:35 AM 68.7 °F 57.2 °F 67% 30.10 in 10.0 mi WSW 3.5 mph - N/A   Clear
9:55 AM 70.0 °F 55.9 °F 61% 30.11 in 10.0 mi Calm Calm - N/A   Clear
10:15 AM 71.2 °F 53.8 °F 54% 30.12 in 10.0 mi SSW 3.5 mph - N/A   Clear
10:35 AM 73.0 °F 48.9 °F 42% 30.13 in 10.0 mi SSW 3.5 mph - N/A   Clear
10:55 AM 73.6 °F 52.7 °F 48% 30.12 in 10.0 mi South 5.8 mph - N/A   Clear
11:15 AM 74.7 °F 50.4 °F 42% 30.13 in 10.0 mi WSW 4.6 mph - N/A   Clear
11:35 AM 75.2 °F 47.5 °F 37% 30.12 in 10.0 mi NW 4.6 mph - N/A   Clear
11:55 AM 74.7 °F 44.4 °F 34% 30.12 in 10.0 mi NNE 4.6 mph - N/A   Clear
12:15 PM 75.7 °F 46.6 °F 35% 30.12 in 10.0 mi Calm Calm - N/A   Mostly Cloudy
12:35 PM 75.9 °F 47.5 °F 36% 30.12 in 10.0 mi WSW 3.5 mph - N/A   Scattered Clouds
12:55 PM 77.0 °F 46.9 °F 34% 30.12 in 10.0 mi NNW 5.8 mph - N/A   Clear
1:15 PM 77.0 °F 45.9 °F 33% 30.12 in 10.0 mi WNW 10.4 mph - N/A   Scattered Clouds
1:35 PM 78.1 °F 46.8 °F 33% 30.12 in 10.0 mi NW 9.2 mph 16.1 mph N/A   Mostly Cloudy
1:55 PM 77.7 °F 47.1 °F 34% 30.13 in 10.0 mi NNW 9.2 mph 16.1 mph N/A   Scattered Clouds
2:15 PM 77.2 °F 46.9 °F 34% 30.12 in 10.0 mi NW 8.1 mph - N/A   Scattered Clouds
2:35 PM 77.2 °F 46.0 °F 33% 30.11 in 10.0 mi NW 6.9 mph - N/A   Scattered Clouds
2:55 PM 77.4 °F 45.7 °F 32% 30.11 in 10.0 mi NW 9.2 mph - N/A   Scattered Clouds
3:15 PM 77.7 °F 45.3 °F 32% 30.11 in 10.0 mi NNW 8.1 mph - N/A   Scattered Clouds
3:35 PM 78.3 °F 48.6 °F 35% 30.11 in 10.0 mi North 10.4 mph - N/A   Clear
3:55 PM 77.4 °F 48.4 °F 36% 30.11 in 10.0 mi NW 8.1 mph - N/A   Clear
4:15 PM 77.7 °F 49.1 °F 36% 30.10 in 10.0 mi NNW 11.5 mph - N/A   Scattered Clouds
4:35 PM 76.6 °F 48.2 °F 37% 30.11 in 10.0 mi North 8.1 mph - N/A   Scattered Clouds
4:55 PM 77.5 °F 48.7 °F 36% 30.11 in 10.0 mi NNW 8.1 mph - N/A   Scattered Clouds
5:15 PM 77.0 °F 45.3 °F 32% 30.11 in 10.0 mi NNW 9.2 mph - N/A   Scattered Clouds
5:35 PM 77.2 °F 46.2 °F 33% 30.11 in 10.0 mi NW 8.1 mph - N/A   Clear
5:55 PM 77.0 °F 45.0 °F 32% 30.11 in 10.0 mi NW 11.5 mph 17.3 mph N/A   Clear
6:15 PM 76.8 °F 45.1 °F 32% 30.11 in 10.0 mi NNW 8.1 mph - N/A   Clear
6:35 PM 76.3 °F 45.1 °F 33% 30.10 in 10.0 mi NNW 10.4 mph - N/A   Clear
6:55 PM 75.7 °F 45.5 °F 34% 30.11 in 10.0 mi NW 8.1 mph - N/A   Clear
7:15 PM 75.2 °F 46.4 °F 36% 30.11 in 10.0 mi NNW 8.1 mph - N/A   Clear
7:35 PM 74.1 °F 49.3 °F 41% 30.11 in 10.0 mi NNE 4.6 mph - N/A   Clear
7:55 PM 73.2 °F 50.2 °F 44% 30.11 in 10.0 mi North 3.5 mph - N/A   Clear
8:15 PM 71.1 °F 50.7 °F 49% 30.12 in 10.0 mi NNE 3.5 mph - N/A   Clear
8:35 PM 67.5 °F 53.6 °F 61% 30.12 in 10.0 mi Calm Calm - N/A   Clear
8:55 PM 65.7 °F 54.3 °F 67% 30.12 in 10.0 mi Calm Calm - N/A   Clear
9:15 PM 66.2 °F 53.8 °F 64% 30.13 in 10.0 mi Calm Calm - N/A   Clear
9:35 PM 66.0 °F 53.2 °F 63% 30.14 in 10.0 mi Calm Calm - N/A   Clear
9:55 PM 62.1 °F 55.4 °F 79% 30.15 in 10.0 mi Calm Calm - N/A   Clear
10:15 PM 61.3 °F 54.7 °F 79% 30.15 in 10.0 mi Calm Calm - N/A   Clear
10:35 PM 60.6 °F 54.5 °F 80% 30.16 in 10.0 mi East 3.5 mph - N/A   Clear
10:55 PM 58.5 °F 54.0 °F 85% 30.16 in 10.0 mi Calm Calm - N/A   Clear
11:15 PM 58.3 °F 54.1 °F 86% 30.16 in 10.0 mi Calm Calm - N/A   Clear
11:35 PM 59.2 °F 54.0 °F 83% 30.17 in 10.0 mi Calm Calm - N/A   Clear
11:55 PM 58.1 °F 53.8 °F 86% 30.18 in 10.0 mi Calm Calm - N/A   Clear